SCP
0 0 0 -0 -0 -0 -0 -0 -0 -0 -0 -0 -0 -0 -0 -0 -0 -0 -0 -0 -0 -0 -0 0 0 -0 0
0 0 0 -0 -0 -0 -0 -0 -0 -0 -0 -0 -0 -0 -0 -0 -0 -0 -0 0 -0 -0 0 0 0 0 0
0 0 0 -0 -0 -0 -0 0 0 0 -0 -0 -0 -0 -0 -0 -0 -0 -0 0 0 0 0 0 0 0 0
0 0 0 0 0 0 0 0 0 0 0 -0 -0 -0 -0 -0 -0 -0 0 0 0 0 0 0 0 0 0
0 0 0 0 0 0 0 0 0 0 0 0 0 0 -0 0 0 0 0 0 0 0 0 0 0 0 0
0 0 0 0 0 0 0 0 0 0 0 0 -0 -0 -0 -0 0 0 0 0 0 0 0 0 0 0 0
0 0 0 0 0 0 0 0 0 0 0 -0 -0 -0 -0 0 0 0 0 0 0 0 0 0 0 0 0
0 0 0 0 0 0 0 0 0 0 -0 -0 -0 0 0 0 0 0 0 0 0 0 0 0 0 0 0
0 0 0 0 0 0 0 0 0 0 -0 0 0 0 0 0 0 0 0 0 0 0 0 0 0 0 0
0 0 0 0 0 0 0 0 0 0 0 0 0 0 0 0 0 0 0 0 0 0 0 0 0 0 0
0 0 0 0 0 0 0 0 0 0 0 0 0 0 0 0 0 0 0 0 0 0 0 0 0 0 0
0 0 0 0 0 0 0 0 0 0 0 0 0 0 0 0 0 0 0 0 0 0 0 0 0 0 0
0 0 0 0 0 0 0 0 0 0 0 0 0 0 0 0 0 0 0 0 0 0 0 0 0 0 0
0 0 0 0 0 0 0 0 0 0 0 0 0 0 0 0 0 0 0 0 0 0 0 0 0 0 0
0 0 0 0 0 0 0 0 0 0 0 0 0 0 0 0 0 0 0 0 0 0 0 0 0 0 0
0 0 0 0 0 0 0 0 0 0 0 0 0 0 0 0 0 0 0 0 0 0 0 0 0 0 0
Wind_Speed_500mb
20 21 18 20 22 21 24 27 30 27 27 25 23 22 22 22 22 23 23 24 25 26 26 27 28 29 29
20 21 20 21 22 21 21 25 26 28 24 22 20 19 18 20 20 20 21 22 22 23 24 24 24 26 26
22 24 24 22 22 23 23 23 21 21 20 18 18 16 16 16 17 17 18 18 18 19 20 20 21 21 22
25 26 25 22 21 21 20 19 18 17 16 15 15 14 14 14 13 13 14 14 15 15 16 17 17 17 19
27 26 25 24 22 21 19 18 17 16 15 14 13 12 11 11 10 9 9 10 11 11 12 13 14 17 20
29 27 25 24 23 21 19 17 15 13 12 12 11 9 8 7 6 6 5 7 9 11 11 12 15 20 23
31 28 26 23 21 19 17 16 15 13 10 9 8 6 4 2 3 4 5 8 9 10 11 14 19 22 27
35 32 29 26 22 20 18 16 15 13 10 9 7 4 2 1 1 3 5 7 8 10 14 19 23 26 28
39 36 32 28 25 25 23 21 17 15 13 11 10 7 6 5 4 4 6 7 14 19 21 23 26 29 27
49 46 40 35 32 29 27 23 20 19 18 17 15 12 11 8 5 8 13 10 17 21 24 26 31 26 18
41 38 37 36 34 32 31 28 27 25 24 21 20 19 14 8 5 9 12 15 20 23 29 29 24 13 7
48 47 46 44 40 38 35 35 29 25 21 16 15 12 10 9 11 15 15 19 22 28 33 19 12 6 15
56 52 50 48 44 43 43 39 31 28 27 22 17 15 14 15 17 20 20 20 23 26 22 14 4 4 8
59 55 53 49 49 45 41 37 37 36 34 32 27 26 24 23 24 24 24 23 24 24 20 14 2 2 2
60 58 56 52 51 47 42 40 41 40 39 36 36 34 32 26 29 29 27 27 24 23 19 10 4 3 19
66 67 65 64 61 55 48 41 39 42 42 41 39 36 35 34 33 32 29 27 25 28 18 12 11 13 8
Wind_Direction_500mb
154 163 150 132 124 121 124 119 114 119 114 110 104 101 100 95 84 77 74 71 67 65 69 68 65 59 56
152 152 150 142 131 124 126 121 116 112 116 113 105 99 97 91 85 78 75 73 70 69 68 63 57 51 46
163 155 157 150 142 132 132 132 129 126 124 117 113 108 95 86 83 77 73 74 72 69 60 53 47 41 35
173 166 160 152 147 141 139 138 132 129 128 126 120 110 99 91 82 73 70 66 63 55 43 35 33 28 21
181 174 164 161 155 146 144 144 141 140 141 133 118 114 108 96 89 75 63 55 46 32 19 18 18 12 2
184 181 175 169 161 160 156 150 149 154 147 139 135 131 113 100 84 64 46 31 18 10 9 6 0 353 347
186 187 184 178 173 171 169 168 170 169 164 159 159 148 125 94 58 36 24 12 6 6 2 350 344 341 338
187 190 190 189 189 188 190 193 193 191 194 199 202 198 218 262 345 14 18 0 357 352 344 340 341 335 332
194 195 198 200 200 202 205 208 210 215 222 230 234 236 250 272 291 317 321 345 343 338 335 334 332 326 323
199 200 202 205 207 211 215 219 224 230 235 239 243 247 250 259 281 325 338 342 331 325 326 328 328 331 337
214 216 216 216 217 219 223 227 228 234 239 240 243 240 242 245 268 293 313 317 320 321 323 326 331 338 11
215 217 220 222 221 223 227 234 231 233 247 253 276 246 217 235 266 288 297 309 312 316 324 340 328 13 125
220 220 223 227 228 229 229 237 244 237 245 256 269 274 264 263 270 281 288 297 300 309 329 342 120 72 135
226 227 232 235 235 238 237 241 243 243 247 251 254 260 270 273 271 279 284 287 290 300 309 333 312 160 273
225 227 231 233 235 232 233 232 238 244 247 250 256 260 263 260 268 273 276 281 279 281 290 291 303 238 329
227 229 231 235 234 235 241 240 244 241 248 249 252 254 261 257 261 266 273 270 267 270 273 254 257 275 319
Wind_Speed_850mb
20 21 18 20 22 21 24 27 30 27 27 25 23 22 22 22 22 23 23 24 25 26 26 27 28 29 29
20 21 20 21 22 21 21 25 26 28 24 22 20 19 18 20 20 20 21 22 22 23 24 24 24 26 26
22 24 24 22 22 23 23 23 21 21 20 18 18 16 16 16 17 17 18 18 18 19 20 20 21 21 22
25 26 25 22 21 21 20 19 18 17 16 15 15 14 14 14 13 13 14 14 15 15 16 17 17 17 19
27 26 25 24 22 21 19 18 17 16 15 14 13 12 11 11 10 9 9 10 11 11 12 13 14 17 20
29 27 25 24 23 21 19 17 15 13 12 12 11 9 8 7 6 6 5 7 9 11 11 12 15 20 23
31 28 26 23 21 19 17 16 15 13 10 9 8 6 4 2 3 4 5 8 9 10 11 14 19 22 27
35 32 29 26 22 20 18 16 15 13 10 9 7 4 2 1 1 3 5 7 8 10 14 19 23 26 28
39 36 32 28 25 25 23 21 17 15 13 11 10 7 6 5 4 4 6 7 14 19 21 23 26 29 27
49 46 40 35 32 29 27 23 20 19 18 17 15 12 11 8 5 8 13 10 17 21 24 26 31 26 18
41 38 37 36 34 32 31 28 27 25 24 21 20 19 14 8 5 9 12 15 20 23 29 29 24 13 7
48 47 46 44 40 38 35 35 29 25 21 16 15 12 10 9 11 15 15 19 22 28 33 19 12 6 15
56 52 50 48 44 43 43 39 31 28 27 22 17 15 14 15 17 20 20 20 23 26 22 14 4 4 8
59 55 53 49 49 45 41 37 37 36 34 32 27 26 24 23 24 24 24 23 24 24 20 14 2 2 2
60 58 56 52 51 47 42 40 41 40 39 36 36 34 32 26 29 29 27 27 24 23 19 10 4 3 19
66 67 65 64 61 55 48 41 39 42 42 41 39 36 35 34 33 32 29 27 25 28 18 12 11 13 8
Wind_Direction_850mb
154 163 150 132 124 121 124 119 114 119 114 110 104 101 100 95 84 77 74 71 67 65 69 68 65 59 56
152 152 150 142 131 124 126 121 116 112 116 113 105 99 97 91 85 78 75 73 70 69 68 63 57 51 46
163 155 157 150 142 132 132 132 129 126 124 117 113 108 95 86 83 77 73 74 72 69 60 53 47 41 35
173 166 160 152 147 141 139 138 132 129 128 126 120 110 99 91 82 73 70 66 63 55 43 35 33 28 21
181 174 164 161 155 146 144 144 141 140 141 133 118 114 108 96 89 75 63 55 46 32 19 18 18 12 2
184 181 175 169 161 160 156 150 149 154 147 139 135 131 113 100 84 64 46 31 18 10 9 6 0 353 347
186 187 184 178 173 171 169 168 170 169 164 159 159 148 125 94 58 36 24 12 6 6 2 350 344 341 338
187 190 190 189 189 188 190 193 193 191 194 199 202 198 218 262 345 14 18 0 357 352 344 340 341 335 332
194 195 198 200 200 202 205 208 210 215 222 230 234 236 250 272 291 317 321 345 343 338 335 334 332 326 323
199 200 202 205 207 211 215 219 224 230 235 239 243 247 250 259 281 325 338 342 331 325 326 328 328 331 337
214 216 216 216 217 219 223 227 228 234 239 240 243 240 242 245 268 293 313 317 320 321 323 326 331 338 11
215 217 220 222 221 223 227 234 231 233 247 253 276 246 217 235 266 288 297 309 312 316 324 340 328 13 125
220 220 223 227 228 229 229 237 244 237 245 256 269 274 264 263 270 281 288 297 300 309 329 342 120 72 135
226 227 232 235 235 238 237 241 243 243 247 251 254 260 270 273 271 279 284 287 290 300 309 333 312 160 273
225 227 231 233 235 232 233 232 238 244 247 250 256 260 263 260 268 273 276 281 279 281 290 291 303 238 329
227 229 231 235 234 235 241 240 244 241 248 249 252 254 261 257 261 266 273 270 267 270 273 254 257 275 319